When you browse on this site, cookies collect data to enhance your experience and personalize the content and advertising you see.
Visit our Privacy Policy to learn more. By continuing to use the site, you agree to this use of cookies and data.
  • In Spain
  • List of Countries
  • For 7 days
  • Water Temperature
  • Weather Map
  • Weather Widgets
  • user-avatar
    Login

    Hourly Weather Llaillay

    Today, 22 January, Wednesday

    Time Temperature Precipitation Wind Pressure Humidity
    00:00 +14°C° 0 mm 0 mps 725 mmHg 83%
    01:00 +13°C° 0 mm 0 mps 725 mmHg 83%
    02:00 +13°C° 0 mm 0 mps 725 mmHg 85%
    03:00 +13°C° 0 mm 0 mps 725 mmHg 86%
    04:00 +12°C° 0 mm 0 mps 725 mmHg 87%
    05:00 +16°C° 0 mm 1 mps 726 mmHg 79%
    06:00 +20°C° 0 mm 1 mps 726 mmHg 71%
    07:00 +23°C° 0 mm 1 mps 727 mmHg 63%
    08:00 +25°C° 0 mm 2 mps 727 mmHg 55%
    09:00 +28°C° 0 mm 2 mps 727 mmHg 47%
    10:00 +31°C° 0 mm 3 mps 727 mmHg 38%
    11:00 +31°C° 0 mm 3 mps 727 mmHg 37%
    12:00 +33°C° 0 mm 4 mps 727 mmHg 35%
    13:00 +34°C° 0 mm 4 mps 727 mmHg 34%
    14:00 +33°C° 0 mm 4 mps 727 mmHg 37%
    15:00 +32°C° 0 mm 4 mps 727 mmHg 40%
    16:00 +30°C° 0 mm 4 mps 727 mmHg 42%
    17:00 +27°C° 0 mm 3 mps 727 mmHg 55%
    18:00 +23°C° 0 mm 2 mps 727 mmHg 68%
    19:00 +20°C° 0 mm 1 mps 727 mmHg 81%
    20:00 +19°C° 0 mm 1 mps 727 mmHg 83%
    21:00 +15°C° 0 mm 0 mps 727 mmHg 86%
    22:00 +14°C° 0 mm 0 mps 727 mmHg 89%
    23:00 +14°C° 0 mm 0 mps 727 mmHg 89%

    Tomorrow, 23 January, Thursday

    Time Temperature Precipitation Wind Pressure Humidity
    00:00 +14°C° 0 mm 0 mps 726 mmHg 89%
    01:00 +14°C° 0 mm 0 mps 726 mmHg 89%
    02:00 +14°C° 0 mm 0 mps 727 mmHg 89%
    03:00 +14°C° 0 mm 0 mps 727 mmHg 89%
    04:00 +14°C° 0 mm 0 mps 727 mmHg 89%
    05:00 +17°C° 0 mm 0 mps 728 mmHg 81%
    06:00 +19°C° 0 mm 0 mps 728 mmHg 72%
    07:00 +24°C° 0 mm 1 mps 728 mmHg 64%
    08:00 +25°C° 0 mm 1 mps 729 mmHg 57%
    09:00 +27°C° 0 mm 2 mps 729 mmHg 50%
    10:00 +29°C° 0 mm 3 mps 729 mmHg 44%
    11:00 +30°C° 0 mm 3 mps 729 mmHg 41%
    12:00 +32°C° 0 mm 4 mps 729 mmHg 38%
    13:00 +33°C° 0 mm 4 mps 729 mmHg 36%
    14:00 +33°C° 0 mm 4 mps 728 mmHg 37%
    15:00 +32°C° 0 mm 4 mps 728 mmHg 37%
    16:00 +32°C° 0 mm 4 mps 728 mmHg 38%
    17:00 +28°C° 0 mm 3 mps 728 mmHg 48%
    18:00 +24°C° 0 mm 2 mps 728 mmHg 57%
    19:00 +21°C° 0 mm 1 mps 727 mmHg 67%
    20:00 +20°C° 0 mm 1 mps 727 mmHg 70%
    21:00 +19°C° 0 mm 1 mps 727 mmHg 74%
    22:00 +17°C° 0 mm 0 mps 727 mmHg 78%
    23:00 +16°C° 0 mm 0 mps 727 mmHg 80%

    Day after tomorrow, 24 January, Friday

    Time Temperature Precipitation Wind Pressure Humidity
    00:00 +15°C° 0 mm 0 mps 727 mmHg 82%
    01:00 +15°C° 0 mm 0 mps 727 mmHg 85%
    02:00 +15°C° 0 mm 0 mps 727 mmHg 85%
    03:00 +15°C° 0 mm 0 mps 727 mmHg 85%
    04:00 +15°C° 0 mm 0 mps 727 mmHg 85%
    05:00 +17°C° 0 mm 0 mps 727 mmHg 75%
    06:00 +20°C° 0 mm 0 mps 728 mmHg 65%
    07:00 +24°C° 0 mm 1 mps 729 mmHg 55%
    08:00 +26°C° 0 mm 1 mps 729 mmHg 49%
    09:00 +29°C° 0 mm 2 mps 729 mmHg 43%
    10:00 +31°C° 0 mm 2 mps 729 mmHg 36%
    11:00 +33°C° 0 mm 3 mps 729 mmHg 35%
    12:00 +33°C° 0 mm 4 mps 729 mmHg 33%
    13:00 +34°C° 0 mm 4 mps 729 mmHg 32%
    14:00 +33°C° 0 mm 4 mps 729 mmHg 33%
    15:00 +33°C° 0 mm 4 mps 728 mmHg 34%
    16:00 +32°C° 0 mm 4 mps 728 mmHg 35%
    17:00 +27°C° 0 mm 3 mps 728 mmHg 47%
    18:00 +24°C° 0 mm 2 mps 728 mmHg 59%
    19:00 +20°C° 0 mm 1 mps 728 mmHg 72%
    20:00 +19°C° 0 mm 1 mps 727 mmHg 75%
    21:00 +15°C° 0 mm 0 mps 727 mmHg 79%
    22:00 +14°C° 0 mm 0 mps 727 mmHg 82%
    23:00 +14°C° 0 mm 0 mps 727 mmHg 83%

    25 January, Saturday

    Time Temperature Precipitation Wind Pressure Humidity
    00:00 +14°C° 0 mm 0 mps 727 mmHg 83%
    01:00 +13°C° 0 mm 0 mps 726 mmHg 83%
    02:00 +13°C° 0 mm 0 mps 726 mmHg 83%
    03:00 +13°C° 0 mm 0 mps 727 mmHg 83%
    04:00 +12°C° 0 mm 0 mps 727 mmHg 84%
    05:00 +16°C° 0 mm 0 mps 727 mmHg 72%
    06:00 +19°C° 0 mm 0 mps 728 mmHg 61%
    07:00 +23°C° 0 mm 0 mps 728 mmHg 49%
    08:00 +27°C° 0 mm 1 mps 728 mmHg 42%
    09:00 +30°C° 0 mm 2 mps 728 mmHg 36%
    10:00 +33°C° 0 mm 3 mps 729 mmHg 29%
    11:00 +34°C° 0 mm 3 mps 729 mmHg 28%
    12:00 +35°C° 0 mm 4 mps 728 mmHg 27%
    13:00 +35°C° 0 mm 4 mps 728 mmHg 26%
    14:00 +35°C° 0 mm 4 mps 728 mmHg 27%
    15:00 +34°C° 0 mm 4 mps 728 mmHg 28%
    16:00 +34°C° 0 mm 4 mps 728 mmHg 29%
    17:00 +29°C° 0 mm 3 mps 728 mmHg 42%
    18:00 +24°C° 0 mm 2 mps 728 mmHg 54%
    19:00 +20°C° 0 mm 1 mps 728 mmHg 67%
    20:00 +19°C° 0 mm 1 mps 728 mmHg 70%
    21:00 +15°C° 0 mm 0 mps 728 mmHg 73%
    22:00 +14°C° 0 mm 0 mps 728 mmHg 77%
    23:00 +14°C° 0 mm 0 mps 727 mmHg 77%

    26 January, Sunday

    Time Temperature Precipitation Wind Pressure Humidity
    00:00 +13°C° 0 mm 0 mps 727 mmHg 77%
    01:00 +13°C° 0 mm 0 mps 727 mmHg 77%
    02:00 +13°C° 0 mm 0 mps 727 mmHg 77%
    03:00 +13°C° 0 mm 0 mps 727 mmHg 78%
    04:00 +12°C° 0 mm 0 mps 727 mmHg 78%
    05:00 +16°C° 0 mm 0 mps 727 mmHg 67%
    06:00 +19°C° 0 mm 0 mps 728 mmHg 55%
    07:00 +25°C° 0 mm 1 mps 729 mmHg 44%
    08:00 +27°C° 0 mm 1 mps 729 mmHg 38%
    09:00 +29°C° 0 mm 2 mps 729 mmHg 33%
    10:00 +33°C° 0 mm 3 mps 729 mmHg 28%
    11:00 +33°C° 0 mm 3 mps 729 mmHg 26%
    12:00 +34°C° 0 mm 4 mps 729 mmHg 25%
    13:00 +35°C° 0 mm 4 mps 729 mmHg 23%
    14:00 +34°C° 0 mm 4 mps 729 mmHg 24%
    15:00 +33°C° 0 mm 4 mps 729 mmHg 25%
    16:00 +33°C° 0 mm 4 mps 729 mmHg 26%
    17:00 +28°C° 0 mm 3 mps 729 mmHg 40%
    18:00 +24°C° 0 mm 2 mps 729 mmHg 53%
    19:00 +20°C° 0 mm 1 mps 728 mmHg 66%
    20:00 +19°C° 0 mm 1 mps 728 mmHg 70%
    21:00 +18°C° 0 mm 1 mps 728 mmHg 73%
    22:00 +14°C° 0 mm 0 mps 728 mmHg 77%
    23:00 +14°C° 0 mm 0 mps 728 mmHg 77%

    27 January, Monday

    Time Temperature Precipitation Wind Pressure Humidity
    00:00 +14°C° 0 mm 0 mps 727 mmHg 77%
    01:00 +13°C° 0 mm 0 mps 727 mmHg 77%
    02:00 +13°C° 0 mm 0 mps 727 mmHg 77%
    03:00 +13°C° 0 mm 0 mps 727 mmHg 78%
    04:00 +13°C° 0 mm 0 mps 727 mmHg 78%
    05:00 +17°C° 0 mm 0 mps 727 mmHg 66%
    06:00 +20°C° 0 mm 0 mps 728 mmHg 55%
    07:00 +24°C° 0 mm 0 mps 728 mmHg 43%
    08:00 +28°C° 0 mm 1 mps 728 mmHg 39%
    09:00 +30°C° 0 mm 2 mps 729 mmHg 34%
    10:00 +33°C° 0 mm 3 mps 729 mmHg 29%
    11:00 +33°C° 0 mm 3 mps 729 mmHg 29%
    12:00 +34°C° 0 mm 4 mps 728 mmHg 29%
    13:00 +35°C° 0 mm 4 mps 728 mmHg 29%
    14:00 +34°C° 0 mm 4 mps 728 mmHg 32%
    15:00 +33°C° 0 mm 4 mps 728 mmHg 35%
    16:00 +32°C° 0 mm 4 mps 728 mmHg 37%
    17:00 +28°C° 0 mm 3 mps 728 mmHg 51%
    18:00 +24°C° 0 mm 2 mps 728 mmHg 65%
    19:00 +20°C° 0 mm 1 mps 727 mmHg 78%
    20:00 +19°C° 0 mm 1 mps 727 mmHg 82%
    21:00 +18°C° 0 mm 1 mps 727 mmHg 85%
    22:00 +15°C° 0 mm 0 mps 727 mmHg 88%
    23:00 +15°C° 0 mm 0 mps 727 mmHg 88%
    Show more